Location: México DF
(19.4326°N, 99.1332°W)
Time: 02:33:02
(UTC+00:00)

ISS - Pass Details

Date: 09 May 2026
Orbit: 414 x 424 km, 51.6° (Epoch: 15 May)

Event Time Altitude Azimuth Distance (km) Brightness Sun altitude
Rises 10:45:51 0° 328° (NNW) 2,354 0.0 -17.8°
Reaches altitude 10° 10:48:00 10° 335° (NNW) 1,492 -1.0 -17.4°
Maximum altitude 10:51:14 46° 50° (NE) 571 -2.6 -16.7°
Drops below altitude 10° 10:54:28 10° 125° (SE) 1,494 -0.6 -16.0°
Sets 10:56:37 0° 131° (SE) 2,358 0.4 -15.5°
